Time,TemperatureF,DewpointF,PressureIn,WindDirection,WindDirectionDegrees,WindSpeedMPH,WindSpeedGustMPH,Humidity,HourlyPrecipIn,Conditions,Clouds,dailyrainin,SolarRadiationWatts/m^2,SoftwareType,DateUTC
2013-03-27 00:01:00,37.6,31.3,30.26,NNW,345,0.0,0.0,78,0.00,,,0.00,0.0,meteohub,2013-03-27 04:01:00,
2013-03-27 00:04:00,37.6,31.3,30.26,NNW,345,0.0,0.0,78,0.00,,,0.00,0.0,meteohub,2013-03-27 04:04:00,
2013-03-27 00:11:00,37.4,31.1,30.26,NNW,345,0.0,0.0,78,0.00,,,0.00,0.0,meteohub,2013-03-27 04:11:00,
2013-03-27 00:12:00,37.4,31.1,30.26,NNW,345,0.0,0.0,78,0.00,,,0.00,0.0,meteohub,2013-03-27 04:12:00,
2013-03-27 00:17:00,37.2,30.9,30.26,NNW,345,0.0,0.0,78,0.00,,,0.00,0.0,meteohub,2013-03-27 04:17:00,
2013-03-27 00:20:00,37.2,30.9,30.26,NNW,345,0.0,0.0,78,0.00,,,0.00,0.0,meteohub,2013-03-27 04:20:00,
2013-03-27 00:26:00,37.0,30.7,30.26,NNW,345,0.0,0.0,78,0.00,,,0.00,0.0,meteohub,2013-03-27 04:26:00,
2013-03-27 00:32:00,37.0,31.1,30.26,NNW,345,0.0,0.0,79,0.00,,,0.00,0.0,meteohub,2013-03-27 04:32:00,
2013-03-27 00:37:00,36.9,30.9,30.27,NNW,345,0.0,0.0,79,0.00,,,0.00,0.0,meteohub,2013-03-27 04:37:00,
2013-03-27 00:42:00,36.9,31.3,30.26,NNW,345,0.0,0.0,80,0.00,,,0.00,0.0,meteohub,2013-03-27 04:42:00,
2013-03-27 00:47:00,36.7,31.1,30.26,NNW,345,0.0,0.0,80,0.00,,,0.00,0.0,meteohub,2013-03-27 04:47:00,
2013-03-27 00:54:00,36.3,31.1,30.27,NNW,345,0.0,1.0,81,0.00,,,0.00,0.0,meteohub,2013-03-27 04:54:00,
2013-03-27 01:00:00,36.1,30.9,30.27,NNW,345,0.0,0.0,81,0.00,,,0.00,0.0,meteohub,2013-03-27 05:00:00,
2013-03-27 01:06:00,36.1,30.9,30.27,NNW,345,0.0,0.0,81,0.00,,,0.00,0.0,meteohub,2013-03-27 05:06:00,
2013-03-27 01:12:00,36.0,30.7,30.27,NNW,345,0.0,0.0,81,0.00,,,0.00,0.0,meteohub,2013-03-27 05:12:00,
2013-03-27 01:19:00,36.0,31.3,30.27,NNW,345,0.0,1.0,83,0.00,,,0.00,0.0,meteohub,2013-03-27 05:19:00,
2013-03-27 01:25:00,36.0,31.3,30.27,NNW,345,0.0,1.0,83,0.00,,,0.00,0.0,meteohub,2013-03-27 05:25:00,
2013-03-27 01:32:00,36.0,31.3,30.27,NNW,345,0.0,2.0,83,0.00,,,0.00,0.0,meteohub,2013-03-27 05:32:00,
2013-03-27 01:37:00,35.8,31.1,30.27,NNW,345,0.0,2.0,83,0.00,,,0.00,0.0,meteohub,2013-03-27 05:37:00,
2013-03-27 01:44:00,35.8,31.1,30.26,NNW,345,0.0,2.0,83,0.00,,,0.00,0.0,meteohub,2013-03-27 05:44:00,
2013-03-27 01:50:00,35.8,31.1,30.26,NNW,345,0.0,2.0,83,0.00,,,0.00,0.0,meteohub,2013-03-27 05:50:00,
2013-03-27 01:57:00,35.6,30.9,30.26,NNW,345,0.0,1.0,83,0.00,,,0.00,0.0,meteohub,2013-03-27 05:57:00,
2013-03-27 02:02:00,35.4,30.7,30.26,NNW,345,0.0,1.0,83,0.00,,,0.00,0.0,meteohub,2013-03-27 06:02:00,
2013-03-27 02:07:00,35.4,30.7,30.26,NNW,345,0.0,1.0,83,0.00,,,0.00,0.0,meteohub,2013-03-27 06:07:00,
2013-03-27 02:12:00,35.4,30.7,30.26,NNW,345,0.0,1.0,83,0.00,,,0.00,0.0,meteohub,2013-03-27 06:12:00,
2013-03-27 02:18:00,35.2,30.6,30.26,NNW,345,0.0,1.0,83,0.00,,,0.00,0.0,meteohub,2013-03-27 06:18:00,
2013-03-27 02:25:00,35.2,30.6,30.26,NNW,334,0.0,1.0,83,0.00,,,0.00,0.0,meteohub,2013-03-27 06:25:00,
2013-03-27 02:31:00,35.2,30.6,30.25,NNW,333,0.0,2.0,83,0.00,,,0.00,0.0,meteohub,2013-03-27 06:31:00,
2013-03-27 02:37:00,35.2,30.6,30.25,NNW,333,0.0,2.0,83,0.00,,,0.00,0.0,meteohub,2013-03-27 06:37:00,
2013-03-27 02:42:00,35.1,30.4,30.26,NNW,333,0.0,2.0,83,0.00,,,0.00,0.0,meteohub,2013-03-27 06:42:00,
2013-03-27 02:49:00,35.1,30.4,30.25,NNW,333,0.0,1.0,83,0.00,,,0.00,0.0,meteohub,2013-03-27 06:49:00,
2013-03-27 02:56:00,34.9,30.2,30.25,NNW,333,1.0,1.0,83,0.00,,,0.00,0.0,meteohub,2013-03-27 06:56:00,
2013-03-27 03:02:00,34.9,30.6,30.25,NNW,333,0.0,1.0,84,0.00,,,0.00,0.0,meteohub,2013-03-27 07:02:00,
2013-03-27 03:07:00,34.7,30.4,30.25,NNW,333,0.0,1.0,84,0.00,,,0.00,0.0,meteohub,2013-03-27 07:07:00,
2013-03-27 03:12:00,34.7,30.4,30.25,NNW,333,0.0,1.0,84,0.00,,,0.00,0.0,meteohub,2013-03-27 07:12:00,
2013-03-27 03:17:00,34.5,30.2,30.25,NNW,333,0.0,1.0,84,0.00,,,0.00,0.0,meteohub,2013-03-27 07:17:00,
2013-03-27 03:22:00,34.5,30.2,30.25,NNW,333,0.0,1.0,84,0.00,,,0.00,0.0,meteohub,2013-03-27 07:22:00,
2013-03-27 03:27:00,34.5,30.2,30.25,NNW,333,0.0,1.0,84,0.00,,,0.00,0.0,meteohub,2013-03-27 07:27:00,
2013-03-27 03:32:00,34.3,30.0,30.25,NNW,333,0.0,1.0,84,0.00,,,0.00,0.0,meteohub,2013-03-27 07:32:00,
2013-03-27 03:39:00,34.3,30.0,30.25,NNW,333,0.0,1.0,84,0.00,,,0.00,0.0,meteohub,2013-03-27 07:39:00,
2013-03-27 03:45:00,34.2,29.8,30.25,NNW,333,1.0,1.0,84,0.00,,,0.00,0.0,meteohub,2013-03-27 07:45:00,
2013-03-27 03:52:00,34.2,29.8,30.25,NNW,333,0.0,1.0,84,0.00,,,0.00,0.0,meteohub,2013-03-27 07:52:00,
2013-03-27 03:57:00,34.2,29.8,30.25,NNW,333,0.0,1.0,84,0.00,,,0.00,0.0,meteohub,2013-03-27 07:57:00,
2013-03-27 04:02:00,34.2,29.8,30.25,NNW,333,0.0,1.0,84,0.00,,,0.00,0.0,meteohub,2013-03-27 08:02:00,
2013-03-27 04:07:00,34.2,29.8,30.25,NNW,333,0.0,1.0,84,0.00,,,0.00,0.0,meteohub,2013-03-27 08:07:00,
2013-03-27 04:14:00,34.2,29.8,30.25,NNW,333,0.0,1.0,84,0.00,,,0.00,0.0,meteohub,2013-03-27 08:14:00,
2013-03-27 04:20:00,34.0,29.7,30.25,NNW,333,0.0,1.0,84,0.00,,,0.00,0.0,meteohub,2013-03-27 08:20:00,
2013-03-27 04:26:00,34.0,29.7,30.25,WSW,237,0.0,1.0,84,0.00,,,0.00,0.0,meteohub,2013-03-27 08:26:00,
2013-03-27 04:32:00,33.8,29.5,30.25,WSW,237,0.0,2.0,84,0.00,,,0.00,0.0,meteohub,2013-03-27 08:32:00,
2013-03-27 04:37:00,33.6,29.3,30.25,WSW,237,0.0,2.0,84,0.00,,,0.00,0.0,meteohub,2013-03-27 08:37:00,
2013-03-27 04:42:00,33.6,29.3,30.25,WSW,237,0.0,1.0,84,0.00,,,0.00,0.0,meteohub,2013-03-27 08:42:00,
2013-03-27 04:47:00,33.6,29.7,30.26,WSW,237,0.0,1.0,85,0.00,,,0.00,0.0,meteohub,2013-03-27 08:47:00,
2013-03-27 04:54:00,33.4,29.5,30.25,WSW,237,0.0,1.0,85,0.00,,,0.00,0.0,meteohub,2013-03-27 08:54:00,
2013-03-27 05:00:00,33.4,29.5,30.25,WSW,237,0.0,1.0,85,0.00,,,0.00,0.0,meteohub,2013-03-27 09:00:00,
2013-03-27 05:07:00,33.3,29.3,30.25,WSW,237,0.0,1.0,85,0.00,,,0.00,0.0,meteohub,2013-03-27 09:07:00,
2013-03-27 05:12:00,33.3,29.3,30.25,WSW,237,0.0,1.0,85,0.00,,,0.00,0.0,meteohub,2013-03-27 09:12:00,
2013-03-27 05:17:00,33.3,29.3,30.26,WSW,237,0.0,1.0,85,0.00,,,0.00,0.0,meteohub,2013-03-27 09:17:00,
2013-03-27 05:22:00,33.3,29.3,30.25,WSW,237,0.0,1.0,85,0.00,,,0.00,0.0,meteohub,2013-03-27 09:22:00,
2013-03-27 05:27:00,33.3,29.3,30.25,WSW,237,0.0,1.0,85,0.00,,,0.00,0.0,meteohub,2013-03-27 09:27:00,
2013-03-27 05:32:00,33.1,29.1,30.26,WSW,237,0.0,1.0,85,0.00,,,0.00,0.0,meteohub,2013-03-27 09:32:00,
2013-03-27 05:37:00,33.1,29.1,30.26,WSW,237,0.0,2.0,85,0.00,,,0.00,0.0,meteohub,2013-03-27 09:37:00,
2013-03-27 05:44:00,32.9,28.9,30.26,WSW,237,0.0,2.0,85,0.00,,,0.00,0.0,meteohub,2013-03-27 09:44:00,
2013-03-27 05:50:00,32.9,28.9,30.26,WSW,237,0.0,2.0,85,0.00,,,0.00,0.0,meteohub,2013-03-27 09:50:00,
2013-03-27 05:57:00,32.7,28.8,30.26,WSW,237,0.0,1.0,85,0.00,,,0.00,0.0,meteohub,2013-03-27 09:57:00,
2013-03-27 06:02:00,32.7,28.8,30.27,WSW,237,0.0,1.0,85,0.00,,,0.00,0.0,meteohub,2013-03-27 10:02:00,
2013-03-27 06:09:00,32.7,28.8,30.27,WSW,237,0.0,1.0,85,0.00,,,0.00,0.0,meteohub,2013-03-27 10:09:00,
2013-03-27 06:16:00,32.5,28.6,30.27,WSW,237,0.0,1.0,85,0.00,,,0.00,0.0,meteohub,2013-03-27 10:16:00,
2013-03-27 06:22:00,32.5,28.6,30.26,WSW,237,0.0,0.0,85,0.00,,,0.00,0.0,meteohub,2013-03-27 10:22:00,
2013-03-27 06:28:00,32.4,28.4,30.27,WSW,237,0.0,0.0,85,0.00,,,0.00,0.0,meteohub,2013-03-27 10:28:00,
2013-03-27 06:34:00,32.4,28.4,30.27,WSW,237,0.0,0.0,85,0.00,,,0.00,0.0,meteohub,2013-03-27 10:34:00,
2013-03-27 06:41:00,32.4,28.4,30.27,WSW,237,0.0,0.0,85,0.00,,,0.00,0.0,meteohub,2013-03-27 10:41:00,
2013-03-27 06:47:00,32.2,28.2,30.27,WSW,237,0.0,0.0,85,0.00,,,0.00,0.0,meteohub,2013-03-27 10:47:00,
2013-03-27 06:52:00,32.2,28.2,30.28,WSW,237,0.0,0.0,85,0.00,,,0.00,0.0,meteohub,2013-03-27 10:52:00,
2013-03-27 06:57:00,32.2,28.2,30.28,WSW,237,0.0,0.0,85,0.00,,,0.00,0.0,meteohub,2013-03-27 10:57:00,
2013-03-27 07:02:00,32.0,28.0,30.28,WSW,237,0.0,0.0,85,0.00,,,0.00,0.0,meteohub,2013-03-27 11:02:00,
2013-03-27 07:09:00,31.8,28.0,30.28,WSW,237,0.0,0.0,86,0.00,,,0.00,0.0,meteohub,2013-03-27 11:09:00,
2013-03-27 07:15:00,31.8,28.0,30.28,WSW,237,0.0,0.0,86,0.00,,,0.00,0.0,meteohub,2013-03-27 11:15:00,
2013-03-27 07:21:00,31.8,28.0,30.28,WSW,237,0.0,0.0,86,0.00,,,0.00,0.0,meteohub,2013-03-27 11:21:00,
2013-03-27 07:27:00,31.8,28.0,30.29,WSW,237,0.0,1.0,86,0.00,,,0.00,5.0,meteohub,2013-03-27 11:27:00,
2013-03-27 07:33:00,31.8,28.0,30.29,WSW,237,0.0,1.0,86,0.00,,,0.00,11.0,meteohub,2013-03-27 11:33:00,
2013-03-27 07:40:00,31.8,28.0,30.29,WSW,237,0.0,1.0,86,0.00,,,0.00,14.0,meteohub,2013-03-27 11:40:00,
2013-03-27 07:46:00,31.8,28.0,30.29,WSW,237,0.0,1.0,86,0.00,,,0.00,18.0,meteohub,2013-03-27 11:46:00,
2013-03-27 07:52:00,31.8,28.0,30.30,WSW,237,0.0,1.0,86,0.00,,,0.00,21.0,meteohub,2013-03-27 11:52:00,
2013-03-27 07:58:00,31.8,28.4,30.30,WSW,237,0.0,1.0,87,0.00,,,0.00,25.0,meteohub,2013-03-27 11:58:00,
2013-03-27 08:05:00,32.2,28.8,30.30,WSW,237,0.0,1.0,87,0.00,,,0.00,28.0,meteohub,2013-03-27 12:05:00,
2013-03-27 08:11:00,32.4,28.9,30.30,WSW,237,0.0,1.0,87,0.00,,,0.00,33.0,meteohub,2013-03-27 12:11:00,
2013-03-27 08:17:00,32.5,29.1,30.30,WSW,237,0.0,1.0,87,0.00,,,0.00,37.0,meteohub,2013-03-27 12:17:00,
2013-03-27 08:22:00,32.9,29.5,30.30,West,274,0.0,1.0,87,0.00,,,0.00,79.0,meteohub,2013-03-27 12:22:00,
2013-03-27 08:29:00,34.2,30.2,30.30,WSW,253,0.0,5.0,85,0.00,,,0.00,67.0,meteohub,2013-03-27 12:29:00,
2013-03-27 08:36:00,34.9,30.6,30.30,WSW,240,0.0,5.0,84,0.00,,,0.00,60.0,meteohub,2013-03-27 12:36:00,
2013-03-27 08:42:00,35.2,30.9,30.30,WSW,241,0.0,5.0,84,0.00,,,0.00,49.0,meteohub,2013-03-27 12:42:00,
2013-03-27 08:48:00,35.8,30.7,30.31,West,269,0.0,3.0,82,0.00,,,0.00,60.0,meteohub,2013-03-27 12:48:00,
2013-03-27 08:54:00,37.0,31.5,30.31,North,9,0.0,3.0,80,0.00,,,0.00,56.0,meteohub,2013-03-27 12:54:00,
2013-03-27 09:00:00,38.5,31.6,30.31,NE,39,2.0,3.0,76,0.00,,,0.00,69.0,meteohub,2013-03-27 13:00:00,
2013-03-27 09:07:00,39.4,31.8,30.31,West,266,2.0,5.0,74,0.00,,,0.00,90.0,meteohub,2013-03-27 13:07:00,
2013-03-27 09:12:00,39.9,31.6,30.31,NW,311,2.0,5.0,72,0.00,,,0.00,125.0,meteohub,2013-03-27 13:12:00,
2013-03-27 09:19:00,40.6,31.3,30.31,West,281,0.0,5.0,69,0.00,,,0.00,274.0,meteohub,2013-03-27 13:19:00,
2013-03-27 09:25:00,41.4,31.3,30.32,West,279,2.0,9.0,67,0.00,,,0.00,369.0,meteohub,2013-03-27 13:25:00,
2013-03-27 09:32:00,41.5,30.7,30.32,ENE,67,0.0,9.0,65,0.00,,,0.00,288.0,meteohub,2013-03-27 13:32:00,
2013-03-27 09:37:00,42.3,31.6,30.32,West,279,2.0,9.0,66,0.00,,,0.00,332.0,meteohub,2013-03-27 13:37:00,
2013-03-27 09:44:00,42.4,30.4,30.32,NW,326,2.0,9.0,62,0.00,,,0.00,334.0,meteohub,2013-03-27 13:44:00,
2013-03-27 09:51:00,42.6,30.2,30.32,East,79,2.0,6.0,61,0.00,,,0.00,204.0,meteohub,2013-03-27 13:51:00,
2013-03-27 09:57:00,43.3,30.7,30.32,WSW,257,3.0,6.0,61,0.00,,,0.00,320.0,meteohub,2013-03-27 13:57:00,
2013-03-27 10:03:00,43.7,31.5,30.32,NE,42,5.0,6.0,62,0.00,,,0.00,207.0,meteohub,2013-03-27 14:03:00,
2013-03-27 10:09:00,44.4,30.9,30.32,NW,321,1.0,8.0,59,0.00,,,0.00,476.0,meteohub,2013-03-27 14:09:00,
2013-03-27 10:15:00,44.6,31.1,30.31,NNW,341,0.0,8.0,59,0.00,,,0.00,114.0,meteohub,2013-03-27 14:15:00,
2013-03-27 10:22:00,44.8,30.6,30.31,North,0,0.0,8.0,57,0.00,,,0.00,276.0,meteohub,2013-03-27 14:22:00,
2013-03-27 10:27:00,44.8,30.6,30.32,East,90,0.0,5.0,57,0.00,,,0.00,485.0,meteohub,2013-03-27 14:27:00,
2013-03-27 10:32:00,45.1,30.7,30.31,SSW,209,0.0,5.0,57,0.00,,,0.00,367.0,meteohub,2013-03-27 14:32:00,
2013-03-27 10:37:00,45.9,30.6,30.31,WNW,290,0.0,5.0,55,0.00,,,0.00,295.0,meteohub,2013-03-27 14:37:00,
2013-03-27 10:43:00,46.2,30.9,30.30,NE,39,0.0,6.0,55,0.00,,,0.00,513.0,meteohub,2013-03-27 14:43:00,
2013-03-27 10:50:00,47.1,31.3,30.30,WNW,284,0.0,6.0,54,0.00,,,0.00,438.0,meteohub,2013-03-27 14:50:00,
2013-03-27 10:56:00,47.1,31.3,30.31,WNW,302,0.0,5.0,54,0.00,,,0.00,677.0,meteohub,2013-03-27 14:56:00,
2013-03-27 11:02:00,47.7,30.9,30.30,ENE,59,3.0,5.0,52,0.00,,,0.00,708.0,meteohub,2013-03-27 15:02:00,
2013-03-27 11:09:00,47.5,30.7,30.30,WSW,252,2.0,5.0,52,0.00,,,0.00,738.0,meteohub,2013-03-27 15:09:00,
2013-03-27 11:15:00,48.9,34.0,30.30,NE,48,3.0,9.0,56,0.00,,,0.00,752.0,meteohub,2013-03-27 15:15:00,
2013-03-27 11:21:00,49.1,30.7,30.30,East,87,0.0,9.0,49,0.00,,,0.00,770.0,meteohub,2013-03-27 15:21:00,
2013-03-27 11:27:00,49.1,31.3,30.31,NNW,331,1.0,9.0,50,0.00,,,0.00,782.0,meteohub,2013-03-27 15:27:00,
2013-03-27 11:32:00,48.9,30.0,30.31,NE,41,0.0,5.0,48,0.00,,,0.00,796.0,meteohub,2013-03-27 15:32:00,
2013-03-27 11:37:00,49.5,31.1,30.31,NNE,17,2.0,5.0,49,0.00,,,0.00,805.0,meteohub,2013-03-27 15:37:00,
2013-03-27 11:42:00,49.8,31.5,30.31,NNE,16,1.0,6.0,49,0.00,,,0.00,817.0,meteohub,2013-03-27 15:42:00,
2013-03-27 11:47:00,49.3,30.4,30.31,East,80,0.0,6.0,48,0.00,,,0.00,823.0,meteohub,2013-03-27 15:47:00,
2013-03-27 11:52:00,50.2,31.3,30.31,West,276,0.0,6.0,48,0.00,,,0.00,837.0,meteohub,2013-03-27 15:52:00,
2013-03-27 11:57:00,51.1,32.0,30.31,East,90,0.0,6.0,48,0.00,,,0.00,849.0,meteohub,2013-03-27 15:57:00,
2013-03-27 12:05:00,51.4,31.8,30.31,NNE,13,1.0,6.0,47,0.00,,,0.00,861.0,meteohub,2013-03-27 16:05:00,
2013-03-27 12:11:00,51.1,31.1,30.30,North,5,1.0,6.0,46,0.00,,,0.00,874.0,meteohub,2013-03-27 16:11:00,
2013-03-27 12:17:00,51.1,30.6,30.30,ENE,78,0.0,6.0,45,0.00,,,0.00,881.0,meteohub,2013-03-27 16:17:00,
2013-03-27 12:22:00,52.2,33.1,30.30,West,278,0.0,6.0,48,0.00,,,0.00,884.0,meteohub,2013-03-27 16:22:00,
2013-03-27 12:30:00,51.6,32.0,30.30,WNW,303,3.0,6.0,47,0.00,,,0.00,898.0,meteohub,2013-03-27 16:30:00,
2013-03-27 12:36:00,52.3,31.6,30.30,SW,229,4.0,6.0,45,0.00,,,0.00,909.0,meteohub,2013-03-27 16:36:00,
2013-03-27 12:42:00,52.3,32.7,30.30,West,277,3.0,6.0,47,0.00,,,0.00,914.0,meteohub,2013-03-27 16:42:00,
2013-03-27 12:47:00,52.7,31.5,30.30,West,277,0.0,7.0,44,0.00,,,0.00,918.0,meteohub,2013-03-27 16:47:00,
2013-03-27 12:52:00,53.1,34.3,30.30,West,273,5.0,7.0,49,0.00,,,0.00,925.0,meteohub,2013-03-27 16:52:00,
2013-03-27 12:58:00,54.0,31.5,30.30,ENE,59,0.0,9.0,42,0.00,,,0.00,928.0,meteohub,2013-03-27 16:58:00,
2013-03-27 13:04:00,54.3,32.9,30.30,West,267,1.0,9.0,44,0.00,,,0.00,935.0,meteohub,2013-03-27 17:04:00,
2013-03-27 13:10:00,53.2,30.2,30.30,East,92,1.0,4.0,41,0.00,,,0.00,939.0,meteohub,2013-03-27 17:10:00,
2013-03-27 13:16:00,53.8,32.9,30.29,WSW,252,1.0,4.0,45,0.00,,,0.00,939.0,meteohub,2013-03-27 17:16:00,
2013-03-27 13:22:00,53.8,34.0,30.29,WSW,242,4.0,4.0,47,0.00,,,0.00,939.0,meteohub,2013-03-27 17:22:00,
2013-03-27 13:29:00,54.1,33.3,30.29,SSW,206,2.0,6.0,45,0.00,,,0.00,940.0,meteohub,2013-03-27 17:29:00,
2013-03-27 13:35:00,54.9,32.2,30.29,West,276,4.0,6.0,42,0.00,,,0.00,947.0,meteohub,2013-03-27 17:35:00,
2013-03-27 13:41:00,54.1,30.4,30.29,WSW,257,0.0,9.0,40,0.00,,,0.00,942.0,meteohub,2013-03-27 17:41:00,
2013-03-27 13:47:00,54.3,33.4,30.28,NW,326,0.0,9.0,45,0.00,,,0.00,946.0,meteohub,2013-03-27 17:47:00,
2013-03-27 13:52:00,55.2,34.9,30.28,WSW,251,3.0,9.0,46,0.00,,,0.00,942.0,meteohub,2013-03-27 17:52:00,
2013-03-27 13:57:00,55.2,33.6,30.27,West,269,3.0,9.0,44,0.00,,,0.00,942.0,meteohub,2013-03-27 17:57:00,
2013-03-27 14:03:00,55.9,33.3,30.27,SW,227,1.0,7.0,42,0.00,,,0.00,937.0,meteohub,2013-03-27 18:03:00,
2013-03-27 14:09:00,56.5,33.1,30.27,West,265,2.0,7.0,41,0.00,,,0.00,933.0,meteohub,2013-03-27 18:09:00,
2013-03-27 14:15:00,56.7,32.5,30.27,North,355,1.0,6.0,40,0.00,,,0.00,930.0,meteohub,2013-03-27 18:15:00,
2013-03-27 14:22:00,57.0,33.6,30.27,WSW,257,6.0,6.0,41,0.00,,,0.00,926.0,meteohub,2013-03-27 18:22:00,
2013-03-27 14:27:00,57.4,32.0,30.26,West,266,0.0,6.0,38,0.00,,,0.00,921.0,meteohub,2013-03-27 18:27:00,
2013-03-27 14:32:00,57.2,33.1,30.26,West,277,2.0,7.0,40,0.00,,,0.00,919.0,meteohub,2013-03-27 18:32:00,
2013-03-27 14:37:00,57.7,34.9,30.26,West,281,0.0,7.0,42,0.00,,,0.00,914.0,meteohub,2013-03-27 18:37:00,
2013-03-27 14:42:00,56.5,31.1,30.25,WSW,242,0.0,5.0,38,0.00,,,0.00,905.0,meteohub,2013-03-27 18:42:00,
2013-03-27 14:47:00,56.7,33.8,30.25,WNW,285,2.0,5.0,42,0.00,,,0.00,895.0,meteohub,2013-03-27 18:47:00,
2013-03-27 14:53:00,57.9,34.3,30.25,NNW,346,0.0,5.0,41,0.00,,,0.00,886.0,meteohub,2013-03-27 18:53:00,
2013-03-27 14:59:00,57.9,35.6,30.25,SW,217,2.0,7.0,43,0.00,,,0.00,879.0,meteohub,2013-03-27 18:59:00,
2013-03-27 15:05:00,57.6,35.2,30.24,WSW,256,4.0,7.0,43,0.00,,,0.00,868.0,meteohub,2013-03-27 19:05:00,
2013-03-27 15:12:00,58.1,35.8,30.24,West,273,0.0,10.0,43,0.00,,,0.00,856.0,meteohub,2013-03-27 19:12:00,
2013-03-27 15:17:00,57.9,36.1,30.24,SW,228,3.0,10.0,44,0.00,,,0.00,847.0,meteohub,2013-03-27 19:17:00,
2013-03-27 15:22:00,57.4,36.1,30.24,SW,215,3.0,10.0,45,0.00,,,0.00,833.0,meteohub,2013-03-27 19:22:00,
2013-03-27 15:27:00,59.2,34.2,30.23,WSW,251,2.0,10.0,39,0.00,,,0.00,828.0,meteohub,2013-03-27 19:27:00,
2013-03-27 15:32:00,58.5,32.9,30.24,WSW,246,4.0,10.0,38,0.00,,,0.00,817.0,meteohub,2013-03-27 19:32:00,
2013-03-27 15:37:00,57.9,34.9,30.23,West,273,2.0,10.0,42,0.00,,,0.00,800.0,meteohub,2013-03-27 19:37:00,
2013-03-27 15:43:00,58.3,34.7,30.23,West,281,6.0,10.0,41,0.00,,,0.00,791.0,meteohub,2013-03-27 19:43:00,
2013-03-27 15:49:00,59.4,35.1,30.23,NW,323,1.0,10.0,40,0.00,,,0.00,775.0,meteohub,2013-03-27 19:49:00,
2013-03-27 15:55:00,59.7,35.4,30.22,West,280,1.0,10.0,40,0.00,,,0.00,761.0,meteohub,2013-03-27 19:55:00,
2013-03-27 16:01:00,59.4,34.3,30.22,West,264,3.0,9.0,39,0.00,,,0.00,747.0,meteohub,2013-03-27 20:01:00,
2013-03-27 16:07:00,59.7,36.5,30.22,SW,218,3.0,9.0,42,0.00,,,0.00,733.0,meteohub,2013-03-27 20:07:00,
2013-03-27 16:12:00,59.4,33.8,30.22,SW,230,0.0,9.0,38,0.00,,,0.00,719.0,meteohub,2013-03-27 20:12:00,
2013-03-27 16:17:00,59.5,34.5,30.22,West,278,2.0,9.0,39,0.00,,,0.00,707.0,meteohub,2013-03-27 20:17:00,
2013-03-27 16:22:00,59.4,34.3,30.22,NNE,16,1.0,9.0,39,0.00,,,0.00,694.0,meteohub,2013-03-27 20:22:00,
2013-03-27 16:27:00,59.4,33.8,30.22,NNW,340,0.0,9.0,38,0.00,,,0.00,679.0,meteohub,2013-03-27 20:27:00,
2013-03-27 16:32:00,59.7,35.4,30.22,West,269,5.0,5.0,40,0.00,,,0.00,663.0,meteohub,2013-03-27 20:32:00,
2013-03-27 16:39:00,59.5,35.2,30.22,West,271,1.0,5.0,40,0.00,,,0.00,640.0,meteohub,2013-03-27 20:39:00,
2013-03-27 16:45:00,60.3,36.5,30.22,West,274,4.0,10.0,41,0.00,,,0.00,621.0,meteohub,2013-03-27 20:45:00,
2013-03-27 16:51:00,59.9,35.6,30.22,SW,223,5.0,10.0,40,0.00,,,0.00,601.0,meteohub,2013-03-27 20:51:00,
2013-03-27 16:57:00,59.5,34.5,30.22,West,279,3.0,10.0,39,0.00,,,0.00,582.0,meteohub,2013-03-27 20:57:00,
2013-03-27 17:02:00,59.5,33.3,30.22,West,277,4.0,10.0,37,0.00,,,0.00,566.0,meteohub,2013-03-27 21:02:00,
2013-03-27 17:07:00,59.7,32.7,30.22,West,265,0.0,10.0,36,0.00,,,0.00,547.0,meteohub,2013-03-27 21:07:00,
2013-03-27 17:12:00,59.7,32.7,30.22,North,5,4.0,10.0,36,0.00,,,0.00,529.0,meteohub,2013-03-27 21:12:00,
2013-03-27 17:17:00,59.5,34.5,30.22,NW,315,0.0,7.0,39,0.00,,,0.00,513.0,meteohub,2013-03-27 21:17:00,
2013-03-27 17:22:00,60.3,34.5,30.22,West,270,3.0,7.0,38,0.00,,,0.00,492.0,meteohub,2013-03-27 21:22:00,
2013-03-27 17:27:00,60.1,35.1,30.22,West,275,0.0,7.0,39,0.00,,,0.00,476.0,meteohub,2013-03-27 21:27:00,
2013-03-27 17:35:00,60.3,33.8,30.22,SSW,208,1.0,6.0,37,0.00,,,0.00,446.0,meteohub,2013-03-27 21:35:00,
2013-03-27 17:41:00,60.1,35.1,30.22,West,265,0.0,5.0,39,0.00,,,0.00,425.0,meteohub,2013-03-27 21:41:00,
2013-03-27 17:47:00,59.7,33.4,30.21,West,269,0.0,5.0,37,0.00,,,0.00,401.0,meteohub,2013-03-27 21:47:00,
2013-03-27 17:53:00,59.7,32.7,30.22,West,264,0.0,5.0,36,0.00,,,0.00,376.0,meteohub,2013-03-27 21:53:00,
2013-03-27 18:00:00,59.7,33.4,30.22,West,277,2.0,9.0,37,0.00,,,0.00,352.0,meteohub,2013-03-27 22:00:00,
2013-03-27 18:06:00,59.9,32.9,30.22,West,271,5.0,9.0,36,0.00,,,0.00,329.0,meteohub,2013-03-27 22:06:00,
2013-03-27 18:12:00,60.1,33.1,30.22,West,275,3.0,9.0,36,0.00,,,0.00,308.0,meteohub,2013-03-27 22:12:00,
2013-03-27 18:17:00,60.3,32.5,30.22,WNW,298,2.0,7.0,35,0.00,,,0.00,285.0,meteohub,2013-03-27 22:17:00,
2013-03-27 18:22:00,60.3,33.3,30.22,West,259,0.0,7.0,36,0.00,,,0.00,267.0,meteohub,2013-03-27 22:22:00,
2013-03-27 18:27:00,60.4,33.4,30.22,SW,233,2.0,7.0,36,0.00,,,0.00,246.0,meteohub,2013-03-27 22:27:00,
2013-03-27 18:34:00,60.4,32.7,30.22,West,271,0.0,7.0,35,0.00,,,0.00,216.0,meteohub,2013-03-27 22:34:00,
2013-03-27 18:40:00,60.4,32.7,30.22,NW,304,1.0,6.0,35,0.00,,,0.00,192.0,meteohub,2013-03-27 22:40:00,
2013-03-27 18:46:00,60.3,33.3,30.22,West,279,1.0,6.0,36,0.00,,,0.00,167.0,meteohub,2013-03-27 22:46:00,
2013-03-27 18:52:00,60.1,32.4,30.22,West,262,0.0,6.0,35,0.00,,,0.00,120.0,meteohub,2013-03-27 22:52:00,
2013-03-27 18:57:00,59.7,33.4,30.22,West,262,2.0,6.0,37,0.00,,,0.00,42.0,meteohub,2013-03-27 22:57:00,
2013-03-27 19:02:00,59.4,33.8,30.22,West,262,1.0,5.0,38,0.00,,,0.00,39.0,meteohub,2013-03-27 23:02:00,
2013-03-27 19:07:00,58.8,33.3,30.22,West,262,1.0,5.0,38,0.00,,,0.00,40.0,meteohub,2013-03-27 23:07:00,
2013-03-27 19:12:00,58.6,33.8,30.22,West,262,1.0,5.0,39,0.00,,,0.00,28.0,meteohub,2013-03-27 23:12:00,
2013-03-27 19:17:00,58.3,34.7,30.22,West,262,0.0,4.0,41,0.00,,,0.00,25.0,meteohub,2013-03-27 23:17:00,
2013-03-27 19:22:00,57.9,34.9,30.23,West,263,0.0,4.0,42,0.00,,,0.00,21.0,meteohub,2013-03-27 23:22:00,
2013-03-27 19:27:00,57.6,35.2,30.22,West,263,0.0,4.0,43,0.00,,,0.00,16.0,meteohub,2013-03-27 23:27:00,
2013-03-27 19:34:00,57.0,35.2,30.22,West,262,0.0,1.0,44,0.00,,,0.00,11.0,meteohub,2013-03-27 23:34:00,
2013-03-27 19:40:00,56.7,36.1,30.22,West,262,0.0,1.0,46,0.00,,,0.00,7.0,meteohub,2013-03-27 23:40:00,
2013-03-27 19:46:00,56.1,36.1,30.22,West,262,0.0,0.0,47,0.00,,,0.00,0.0,meteohub,2013-03-27 23:46:00,
2013-03-27 19:52:00,55.6,36.1,30.22,West,262,0.0,0.0,48,0.00,,,0.00,0.0,meteohub,2013-03-27 23:52:00,
2013-03-27 19:57:00,55.0,36.7,30.23,West,262,0.0,0.0,50,0.00,,,0.00,0.0,meteohub,2013-03-27 23:57:00,
2013-03-27 20:02:00,54.5,37.2,30.23,West,262,0.0,0.0,52,0.00,,,0.00,0.0,meteohub,2013-03-28 00:02:00,
2013-03-27 20:07:00,53.8,37.0,30.23,West,262,0.0,0.0,53,0.00,,,0.00,0.0,meteohub,2013-03-28 00:07:00,
2013-03-27 20:12:00,53.1,36.9,30.23,West,262,0.0,0.0,54,0.00,,,0.00,0.0,meteohub,2013-03-28 00:12:00,
2013-03-27 20:17:00,52.3,36.1,30.23,West,262,0.0,0.0,54,0.00,,,0.00,0.0,meteohub,2013-03-28 00:17:00,
2013-03-27 20:22:00,52.0,36.9,30.23,West,262,0.0,0.0,56,0.00,,,0.00,0.0,meteohub,2013-03-28 00:22:00,
2013-03-27 20:27:00,51.3,37.0,30.23,West,262,0.0,0.0,58,0.00,,,0.00,0.0,meteohub,2013-03-28 00:27:00,
2013-03-27 20:32:00,50.7,36.9,30.23,West,262,0.0,0.0,59,0.00,,,0.00,0.0,meteohub,2013-03-28 00:32:00,
2013-03-27 20:39:00,50.0,37.6,30.24,West,262,0.0,0.0,62,0.00,,,0.00,0.0,meteohub,2013-03-28 00:39:00,
2013-03-27 20:45:00,49.5,37.4,30.24,West,262,0.0,0.0,63,0.00,,,0.00,0.0,meteohub,2013-03-28 00:45:00,
2013-03-27 20:52:00,48.9,37.8,30.24,West,262,0.0,0.0,65,0.00,,,0.00,0.0,meteohub,2013-03-28 00:52:00,
2013-03-27 20:57:00,48.6,37.8,30.24,West,262,0.0,0.0,66,0.00,,,0.00,0.0,meteohub,2013-03-28 00:57:00,
2013-03-27 21:02:00,48.2,37.8,30.24,West,262,0.0,0.0,67,0.00,,,0.00,0.0,meteohub,2013-03-28 01:02:00,
2013-03-27 21:07:00,47.7,37.6,30.24,West,262,0.0,0.0,68,0.00,,,0.00,0.0,meteohub,2013-03-28 01:07:00,
2013-03-27 21:13:00,47.1,37.4,30.24,West,262,0.0,0.0,69,0.00,,,0.00,0.0,meteohub,2013-03-28 01:13:00,
2013-03-27 21:19:00,46.6,37.4,30.25,West,262,0.0,0.0,70,0.00,,,0.00,0.0,meteohub,2013-03-28 01:19:00,
2013-03-27 21:26:00,46.0,37.2,30.25,West,262,0.0,0.0,71,0.00,,,0.00,0.0,meteohub,2013-03-28 01:26:00,
2013-03-27 21:32:00,45.7,37.2,30.25,West,262,0.0,0.0,72,0.00,,,0.00,0.0,meteohub,2013-03-28 01:32:00,
2013-03-27 21:37:00,45.3,36.9,30.25,West,262,0.0,0.0,72,0.00,,,0.00,0.0,meteohub,2013-03-28 01:37:00,
2013-03-27 21:42:00,45.1,37.0,30.25,West,262,0.0,0.0,73,0.00,,,0.00,0.0,meteohub,2013-03-28 01:42:00,
2013-03-27 21:47:00,44.8,37.0,30.25,West,262,0.0,0.0,74,0.00,,,0.00,0.0,meteohub,2013-03-28 01:47:00,
2013-03-27 21:54:00,44.4,37.4,30.26,West,262,0.0,0.0,76,0.00,,,0.00,0.0,meteohub,2013-03-28 01:54:00,
2013-03-27 22:00:00,44.2,37.6,30.26,West,262,0.0,0.0,77,0.00,,,0.00,0.0,meteohub,2013-03-28 02:00:00,
2013-03-27 22:07:00,43.9,37.4,30.26,West,262,0.0,0.0,78,0.00,,,0.00,0.0,meteohub,2013-03-28 02:07:00,
2013-03-27 22:12:00,43.5,37.0,30.26,West,262,0.0,0.0,78,0.00,,,0.00,0.0,meteohub,2013-03-28 02:12:00,
2013-03-27 22:17:00,43.3,36.9,30.27,West,262,0.0,0.0,78,0.00,,,0.00,0.0,meteohub,2013-03-28 02:17:00,
2013-03-27 22:22:00,43.3,37.6,30.26,West,262,0.0,0.0,80,0.00,,,0.00,0.0,meteohub,2013-03-28 02:22:00,
2013-03-27 22:27:00,43.2,37.8,30.27,West,262,0.0,0.0,81,0.00,,,0.00,0.0,meteohub,2013-03-28 02:27:00,
2013-03-27 22:32:00,43.0,37.6,30.27,West,262,0.0,1.0,81,0.00,,,0.00,0.0,meteohub,2013-03-28 02:32:00,
2013-03-27 22:40:00,42.6,37.6,30.27,West,262,0.0,0.0,82,0.00,,,0.00,0.0,meteohub,2013-03-28 02:40:00,
2013-03-27 22:47:00,42.4,37.4,30.27,West,262,0.0,0.0,82,0.00,,,0.00,0.0,meteohub,2013-03-28 02:47:00,
2013-03-27 22:52:00,42.3,37.2,30.27,West,262,0.0,0.0,82,0.00,,,0.00,0.0,meteohub,2013-03-28 02:52:00,
2013-03-27 22:57:00,42.3,37.2,30.26,West,262,0.0,0.0,82,0.00,,,0.00,0.0,meteohub,2013-03-28 02:57:00,
2013-03-27 23:02:00,42.1,37.0,30.26,West,262,0.0,0.0,82,0.00,,,0.00,0.0,meteohub,2013-03-28 03:02:00,
2013-03-27 23:09:00,41.7,36.9,30.26,West,262,0.0,0.0,83,0.00,,,0.00,0.0,meteohub,2013-03-28 03:09:00,
2013-03-27 23:15:00,41.5,36.7,30.26,West,262,0.0,0.0,83,0.00,,,0.00,0.0,meteohub,2013-03-28 03:15:00,
2013-03-27 23:21:00,41.4,36.5,30.26,West,262,0.0,0.0,83,0.00,,,0.00,0.0,meteohub,2013-03-28 03:21:00,
2013-03-27 23:27:00,41.2,36.5,30.26,West,262,0.0,0.0,83,0.00,,,0.00,0.0,meteohub,2013-03-28 03:27:00,
2013-03-27 23:32:00,41.0,36.3,30.26,West,262,0.0,0.0,83,0.00,,,0.00,0.0,meteohub,2013-03-28 03:32:00,
2013-03-27 23:37:00,40.8,36.1,30.25,West,262,0.0,0.0,83,0.00,,,0.00,0.0,meteohub,2013-03-28 03:37:00,
2013-03-27 23:43:00,40.6,36.1,30.26,West,262,0.0,0.0,84,0.00,,,0.00,0.0,meteohub,2013-03-28 03:43:00,
2013-03-27 23:49:00,40.5,36.0,30.26,West,262,0.0,0.0,84,0.00,,,0.00,0.0,meteohub,2013-03-28 03:49:00,
2013-03-27 23:55:00,40.3,35.8,30.25,West,262,0.0,0.0,84,0.00,,,0.00,0.0,meteohub,2013-03-28 03:55:00,